{"data":{"norad_id":61724,"epoch":"2026-05-25T02:53:50.277120Z","epoch_age_seconds":75325,"freshness":"FRESH","line1":"1 61724U 24196T   26145.12072080  .00000629  00000+0  33382-4 0  9999","line2":"2 61724  53.1605 106.6733 0001380  99.9183 260.1973 15.30191631 87653","mean_motion":15.30191631,"eccentricity":0.000138,"inclination_deg":53.1605,"raan_deg":106.6733,"arg_perigee_deg":99.9183,"mean_anomaly_deg":260.1973,"bstar":3.3382e-5,"rev_number":8765,"period_min":94.10586039207,"perigee_km":474.29429182471,"apogee_km":476.18582389268,"semimajor_km":6853.3770578587,"source":"CELESTRAK","updated_at":"2026-05-25T13:38:19.447752Z"}}